Live-Position
3D-Globus wird geladen...
Über Starlink 4683
Group: 3 satellites
Beschreibung wird geladen...
Nächste Überflüge
Passes for default location (London). Set your location on the main map for personalized predictions.
Höhenverlauf
Loading altitude history...
No altitude history available
Zweizeiliger Elementsatz
1 53712U 22107N 26126.33889782 -.00000905 00000-0 -38722-4 0 9997
2 53712 53.2202 349.8696 0001986 87.3881 272.7338 15.08848664203207
Epoch: 6. Mai 2026 •
Age: 12 hours
Aktueller Status
Höhe 540.0 km
Geschwindigkeit 7.59 km/s
Subsatellitenpunkt 5.05°N,
1.23°W
Startdatum 5. Sept. 2022
Alter 3.6 years
Typ internet
Startgruppe
Falcon 9 •
Group 4-20 •
40 satellites
Starlink 4725
53700
Starlink 4711 53701
Starlink 4724 53702
Starlink 4731 53703
Starlink 4714 53704
Starlink 4717 53705
Starlink 4716 53706
Starlink 4667 53707
Starlink 4694 53708
Starlink 4685 53709
Starlink 4627 53711
Starlink 4686 53715
Starlink 4699 53716
Starlink 4695 53718
Starlink 4644 53719
Starlink 4642 53720
Starlink 4707 53721
Starlink 4700 53722
Starlink 4705 53723
Starlink 4663 53724
...and 19 more
Technische Details
Klassifizierung Payload
Masse 305.00 kg
Trockenmasse 290.00 kg
Gesamtmasse 305.00 kg
Länge 0.20 m
Durchmesser 2.80 m
Spannweite 9.00 m
Form Box + pan
Hersteller SPXS
Bus-Typ Starlink
Phasenstatus In Orbit
Besitzer/Staat SPXS/US
Most Searched
Loading...